TimeMST,TemperatureF,Dew PointF,Humidity,Sea Level PressureIn,VisibilityMPH,Wind Direction,Wind SpeedMPH,Gust SpeedMPH,PrecipitationIn,Events,Conditions,WindDirDegrees,DateUTC
12:55 AM,23.0,17.1,78,29.67,10.0,Calm,Calm,-,N/A,,Clear,0,2012-12-12 07:55:00
1:55 AM,24.1,18.0,77,29.67,10.0,Calm,Calm,-,N/A,,Clear,0,2012-12-12 08:55:00
2:55 AM,23.0,17.1,78,29.68,10.0,West,4.6,-,N/A,,Clear,270,2012-12-12 09:55:00
3:55 AM,19.9,15.1,81,29.70,10.0,Calm,Calm,-,N/A,,Clear,0,2012-12-12 10:55:00
4:55 AM,23.0,18.0,81,29.70,10.0,WSW,5.8,-,N/A,,Clear,250,2012-12-12 11:55:00
5:55 AM,19.0,16.0,88,29.71,10.0,West,6.9,-,N/A,,Clear,270,2012-12-12 12:55:00
6:55 AM,18.0,15.1,88,29.73,10.0,SSW,3.5,-,N/A,,Clear,200,2012-12-12 13:55:00
7:55 AM,24.1,19.0,81,29.73,10.0,Calm,Calm,-,N/A,,Clear,0,2012-12-12 14:55:00
8:55 AM,24.1,19.9,84,29.74,10.0,SSW,3.5,-,N/A,,Clear,210,2012-12-12 15:55:00
9:55 AM,30.9,23.0,72,29.73,10.0,Calm,Calm,-,N/A,,Partly Cloudy,0,2012-12-12 16:55:00
10:55 AM,34.0,26.1,73,29.72,10.0,WSW,6.9,-,N/A,,Clear,250,2012-12-12 17:55:00
11:55 AM,39.9,27.0,60,29.71,10.0,WSW,5.8,-,N/A,,Clear,250,2012-12-12 18:55:00
12:55 PM,45.0,28.9,53,29.67,10.0,Calm,Calm,-,N/A,,Clear,0,2012-12-12 19:55:00
1:55 PM,46.0,30.0,54,29.68,10.0,ENE,4.6,-,N/A,,Clear,70,2012-12-12 20:55:00
2:55 PM,45.0,32.0,60,29.69,10.0,East,6.9,-,N/A,,Clear,80,2012-12-12 21:55:00
3:55 PM,37.0,30.0,76,29.72,10.0,East,8.1,-,N/A,,Clear,80,2012-12-12 22:55:00
4:55 PM,35.1,28.9,78,29.73,10.0,East,9.2,-,N/A,,Clear,80,2012-12-12 23:55:00
5:55 PM,32.0,27.0,82,29.74,10.0,ENE,5.8,-,N/A,,Clear,70,2012-12-13 00:55:00
6:55 PM,28.9,26.1,89,29.76,10.0,NE,4.6,-,N/A,,Clear,50,2012-12-13 01:55:00
7:55 PM,26.1,24.1,92,29.76,10.0,NE,3.5,-,N/A,,Clear,40,2012-12-13 02:55:00
8:55 PM,25.0,23.0,92,29.78,10.0,NNE,4.6,-,N/A,,Clear,20,2012-12-13 03:55:00
9:55 PM,21.9,19.9,92,29.79,10.0,NW,3.5,-,N/A,,Clear,310,2012-12-13 04:55:00
10:55 PM,21.9,19.0,89,29.83,10.0,NNW,5.8,-,N/A,,Clear,330,2012-12-13 05:55:00
11:55 PM,19.0,17.1,92,29.86,10.0,WNW,5.8,-,N/A,,Clear,300,2012-12-13 06:55:00